Погода в Лионе

Франция     45°45′35″N   4°50′12″E
темп.,
°C
ветер,
м/с
пор.,
м/с
влажн.,
%
обл.,
%
осадки,
мм/ч
давл.,
гПа
погр.,
м
22 сентября, ср
ср2223:00+13зсз22830 0.0 102678
02:00+12сз12860 0.0 102657
05:00+11зсз11881 0.0 102529
08:00+10ссз11891 0.0 102779
11:00+15с22695 0.0 1026532
14:00+19ссв33534 0.0 1024808
17:00+19с34531 0.0 1022750
20:00+16ссз23705 0.0 102282
23 сентября, чт
чт2323:00+14з117875 0.0 102318
02:00+12зюз118216 0.0 102319
05:00+11зюз11865 0.0 102316
08:00+11ююз008893 0.0 102339
11:00+16вюв116585 0.0 1022431
14:00+20вюв2252100 0.0 1021873
17:00+22в22478 0.0 1020839
20:00+18ссв11655 0.0 102016
24 сентября, пт
пт2423:00+15сз11745 0.0 102118
02:00+14з11800 0.0 102112
05:00+13сз11840 0.0 102118
08:00+12зюз11860 0.0 102122
11:00+18всв11640 0.0 1020393
14:00+22всв21500 0.0 1019788
17:00+23св11440 0.0 1017862
20:00+18св11605 0.0 101711
25 сентября, сб
сб2523:00+17ссв1166100 0.0 101822
02:00+16зюз0074100 0.0 101714
05:00+15ююв117697 0.0 101715
08:00+14ююв117999 0.0 101744
11:00+20ююв246112 0.0 1017412
14:00+27ююв374137 0.0 10151421
17:00+27ююв494470 0.0 10141582
20:00+21ю25684 0.3 1015112
26 сентября, вс
вс2623:00+17ююв13885 0.8 1016121
02:00+16ю1293100 1.8 101769
05:00+16ю119496 1.1 101637
08:00+16ююз119688 2.2 101744
11:00+20юв1180100 0.9 1017325
14:00+24зсз2352100 1.9 10161313
17:00+20в2379100 3.3 1017218
20:00+16ююв139232 5.8 1018138